Tracking 27422 objects as of 30-May-2023
HD Live streaming from Space Station
objects crossing your sky now

COSMOS 2251 DEB

Track COSMOS 2251 DEB now!
10-day predictions


NORAD ID: 34879
Int'l Code: 1993-036ACS
Perigee: 764.6 km
Apogee: 1,558.5 km
Inclination: 73.9 °
Period: 108.4 minutes
Semi major axis: 7532 km
RCS: 0.0088 m2 (small)
Launch date: June 16, 1993
Source: Commonwealth of Independent States (former USSR) (CIS)
Launch site: PLESETSK MISSILE AND SPACE COMPLEX (PKMTR)

Note: This is SATELLITE DEBRIS
Your satellite tracking list
Your tracking list is empty




NASA's NSSDC Master Catalog

Two Line Element Set (TLE):
1 34879U 93036ACS 23149.40785046  .00004986  00000-0  51601-2 0  9997
2 34879  73.9159 305.1203 0527039 189.2349 169.8757 13.27974050459709
Source of the keplerian elements: AFSPC